Погода в Кокнесе

Латвия     56°39′04″N   25°25′43″E
темп.,
°C
ветер,
м/с
пор.,
м/с
влажн.,
%
обл.,
%
осадки,
мм/ч
давл.,
гПа
погр.,
м
5 марта, пт
пт523:00−2сз39660 0.0 1011582
02:00−2зсз596920 0.1 10111246
05:00−3сз597585 0.0 10121042
08:00−4ссз595276 0.1 10131142
11:00−1ссз59340 0.0 10151713
14:000сз47330 0.0 10162053
17:00−1зсз245278 0.0 10161126
20:00−3ссв359088 0.6 1018362
6 марта, сб
сб623:00−4с276299 0.4 1020539
02:00−5ссз256750 0.4 1022262
05:00−6зсз26680 0.0 1022274
08:00−5з26750 0.0 1023386
11:00−1з47548 0.0 10221178
14:00+1зюз6114722 0.0 10191522
17:00+1зюз61351100 0.0 10151515
20:000зюз71757100 0.0 10121398
7 марта, вс
вс723:00−1зюз71594100 0.3 10071168
02:000з71497100 2.6 10041178
05:00−3сз61358100 1.2 10051591
08:00−4зсз3105867 1.2 10061430
11:00−1зсз7124867 0.5 10052096
14:00−1зсз7135083 1.0 10032053
17:00−2зсз71661100 0.5 10012315
20:00−5сз7147199 0.7 10031411
8 марта, пн
пн823:00−5сз61172100 0.0 10061075
02:00−6сз397965 0.0 1008725
05:00−7сз258974 0.0 1009212
08:00−7сз248152 0.0 1011339
11:00−5ссз4663100 0.1 10131081
14:00−5ссз4757100 0.1 10151226
17:00−6с486196 0.0 10171095
20:00−8с496976 0.0 1020836
9 марта, вт
вт923:00−9с29720 0.0 1022499
02:00−10ссз25790 0.0 1024171
05:00−10сз22810 0.0 102575
08:00−9сз13732 0.0 1026130
11:00−4з24550 0.0 1026617
14:00−1з35490 0.0 1027998
17:00−2зюз36510 0.0 1026865
20:00−5зюз39626 0.0 1027344